M I D A S
Marine Information and Data Acquisition System
Tripno 1406 of the Zeeleeuw from 2007-09-11 08:00:00 to 2007-09-11 17:00:00
Back to CruiseResearch ActivitiesStationsMapUnderway DataData graphs

EquipmentUnitsComment
TimeDGPSUTC
LatitudeDGPSDM.mWGS84
LongitudeDGPSDM.mWGS84
TemperatureSBE03/SBE38deg celciusITS90
ConductivitySBE21S/mITS90
SalinitySBE21 Practical Salinity Units
ChlorophylAChelsea fluorimeterg/lCalibrated in Aceton
Missing or incorrect values are displayed as -999
Sea surface data collected by the RV Zeeleeuw from 2007-09-11 08:00:00 to 2007-09-11 17:00:00
Time Latitude Longitude Temperature Conductivity Salinity ChlorophylA
2007-09-11 08:01:05 51°15.117 2°52.67 -999 -999 -999 -999
2007-09-11 08:02:05 51°15.187 2°52.35 -999 -999 -999 -999
2007-09-11 08:03:05 51°15.247 2°52.017 -999 -999 -999 -999
2007-09-11 08:04:05 51°15.3 2°51.685 -999 -999 -999 -999
2007-09-11 08:05:05 51°15.358 2°51.353 -999 -999 -999 -999
2007-09-11 08:06:05 51°15.413 2°51.022 -999 -999 -999 -999
2007-09-11 08:07:05 51°15.477 2°50.7 -999 -999 -999 -999
2007-09-11 08:08:06 51°15.559 2°50.396 -999 -999 -999 -999
2007-09-11 08:09:05 51°15.647 2°50.116 -999 -999 -999 -999
2007-09-11 08:10:05 51°15.747 2°49.858 -999 -999 -999 -999
2007-09-11 08:11:05 51°15.854 2°49.601 -999 -999 -999 -999
2007-09-11 08:12:05 51°15.958 2°49.34 -999 -999 -999 -999
2007-09-11 08:13:05 51°16.056 2°49.068 -999 -999 -999 -999
2007-09-11 08:14:05 51°16.054 2°48.836 -999 -999 -999 -999
2007-09-11 08:15:05 51°16.017 2°48.68 -999 -999 -999 -999
2007-09-11 08:16:05 51°15.985 2°48.578 -999 -999 -999 -999
2007-09-11 08:17:05 51°15.956 2°48.513 -999 -999 -999 -999
2007-09-11 08:18:05 51°15.927 2°48.468 -999 -999 -999 -999
2007-09-11 08:19:05 51°15.902 2°48.433 -999 -999 -999 -999
2007-09-11 08:20:05 51°15.875 2°48.404 -999 -999 -999 -999
2007-09-11 08:21:05 51°15.849 2°48.383 -999 -999 -999 -999
2007-09-11 08:22:05 51°15.822 2°48.36 -999 -999 -999 -999
2007-09-11 08:23:05 51°15.79 2°48.293 -999 -999 -999 -999
2007-09-11 08:24:05 51°15.768 2°48.219 -999 -999 -999 -999
2007-09-11 08:25:05 51°15.764 2°48.119 -999 -999 -999 -999
2007-09-11 08:26:05 51°15.77 2°48.036 -999 -999 -999 -999
2007-09-11 08:27:05 51°15.776 2°47.953 -999 -999 -999 -999
2007-09-11 08:28:05 51°15.787 2°47.862 -999 -999 -999 -999
2007-09-11 08:29:05 51°15.801 2°47.76 -999 -999 -999 -999
2007-09-11 08:30:05 51°15.813 2°47.638 -999 -999 -999 -999
2007-09-11 08:31:05 51°15.811 2°47.53 -999 -999 -999 -999
2007-09-11 08:32:05 51°15.802 2°47.438 -999 -999 -999 -999
2007-09-11 08:33:05 51°15.792 2°47.339 -999 -999 -999 -999
2007-09-11 08:34:05 51°15.786 2°47.22 -999 -999 -999 -999
2007-09-11 08:35:05 51°15.78 2°47.106 -999 -999 -999 -999
2007-09-11 08:36:05 51°15.765 2°47.002 -999 -999 -999 -999
2007-09-11 08:37:05 51°15.752 2°46.889 -999 -999 -999 -999
2007-09-11 08:38:05 51°15.736 2°46.785 -999 -999 -999 -999
2007-09-11 08:39:05 51°15.719 2°46.676 -999 -999 -999 -999
2007-09-11 08:40:05 51°15.705 2°46.56 -999 -999 -999 -999
2007-09-11 08:41:05 51°15.693 2°46.454 -999 -999 -999 -999
2007-09-11 08:42:05 51°15.678 2°46.351 -999 -999 -999 -999
2007-09-11 08:43:05 51°15.66 2°46.242 -999 -999 -999 -999
2007-09-11 08:44:05 51°15.63 2°46.132 -999 -999 -999 -999
2007-09-11 08:45:05 51°15.596 2°46.03 -999 -999 -999 -999
2007-09-11 08:46:05 51°15.563 2°45.926 -999 -999 -999 -999
2007-09-11 08:47:05 51°15.528 2°45.82 -999 -999 -999 -999
2007-09-11 08:48:05 51°15.492 2°45.719 -999 -999 -999 -999
2007-09-11 08:49:05 51°15.453 2°45.617 -999 -999 -999 -999
2007-09-11 08:50:05 51°15.413 2°45.515 -999 -999 -999 -999
2007-09-11 08:51:05 51°15.378 2°45.411 -999 -999 -999 -999
2007-09-11 08:52:05 51°15.341 2°45.308 -999 -999 -999 -999
2007-09-11 08:53:05 51°15.304 2°45.215 -999 -999 -999 -999
2007-09-11 08:54:05 51°15.268 2°45.112 -999 -999 -999 -999
2007-09-11 08:55:05 51°15.231 2°45.005 -999 -999 -999 -999
2007-09-11 08:56:05 51°15.192 2°44.904 -999 -999 -999 -999
2007-09-11 08:57:05 51°15.153 2°44.806 -999 -999 -999 -999
2007-09-11 08:58:05 51°15.107 2°44.691 -999 -999 -999 -999
2007-09-11 08:59:05 51°15.069 2°44.593 -999 -999 -999 -999
2007-09-11 09:00:05 51°15.031 2°44.488 -999 -999 -999 -999
2007-09-11 09:01:05 51°14.987 2°44.377 -999 -999 -999 -999
2007-09-11 09:02:05 51°14.948 2°44.276 -999 -999 -999 -999
2007-09-11 09:03:05 51°14.919 2°44.191 -999 -999 -999 -999
2007-09-11 09:04:05 51°14.896 2°44.115 -999 -999 -999 -999
2007-09-11 09:05:05 51°14.88 2°44.041 -999 -999 -999 -999
2007-09-11 09:06:05 51°14.865 2°43.979 -999 -999 -999 -999
2007-09-11 09:07:05 51°14.844 2°43.933 -999 -999 -999 -999
2007-09-11 09:08:05 51°14.823 2°43.896 -999 -999 -999 -999
2007-09-11 09:09:05 51°14.799 2°43.863 -999 -999 -999 -999
2007-09-11 09:10:05 51°14.773 2°43.835 -999 -999 -999 -999
2007-09-11 09:11:05 51°14.747 2°43.812 -999 -999 -999 -999
2007-09-11 09:12:05 51°14.723 2°43.791 -999 -999 -999 -999
2007-09-11 09:13:05 51°14.697 2°43.757 -999 -999 -999 -999
2007-09-11 09:14:05 51°14.711 2°43.619 -999 -999 -999 -999
2007-09-11 09:15:05 51°14.79 2°43.425 -999 -999 -999 -999
2007-09-11 09:16:05 51°14.887 2°43.202 -999 -999 -999 -999
2007-09-11 09:17:05 51°14.979 2°42.969 -999 -999 -999 -999
2007-09-11 09:18:05 51°15.071 2°42.747 -999 -999 -999 -999
2007-09-11 09:19:05 51°15.164 2°42.522 -999 -999 -999 -999
2007-09-11 09:20:05 51°15.257 2°42.298 -999 -999 -999 -999
2007-09-11 09:21:05 51°15.345 2°42.08 -999 -999 -999 -999
2007-09-11 09:22:06 51°15.443 2°41.872 -999 -999 -999 -999
2007-09-11 09:23:06 51°15.547 2°41.682 -999 -999 -999 -999
2007-09-11 09:24:05 51°15.653 2°41.488 -999 -999 -999 -999
2007-09-11 09:25:06 51°15.765 2°41.285 -999 -999 -999 -999
2007-09-11 09:26:05 51°15.87 2°41.094 -999 -999 -999 -999
2007-09-11 09:27:05 51°15.971 2°40.899 -999 -999 -999 -999
2007-09-11 09:28:07 51°16.084 2°40.712 -999 -999 -999 -999
2007-09-11 09:29:06 51°16.195 2°40.533 -999 -999 -999 -999
2007-09-11 09:30:05 51°16.311 2°40.35 -999 -999 -999 -999
2007-09-11 09:31:05 51°16.434 2°40.175 -999 -999 -999 -999
2007-09-11 09:32:06 51°16.558 2°39.996 -999 -999 -999 -999
2007-09-11 09:33:06 51°16.668 2°39.823 -999 -999 -999 -999
2007-09-11 09:34:05 51°16.784 2°39.656 -999 -999 -999 -999
2007-09-11 09:35:05 51°16.903 2°39.489 -999 -999 -999 -999
2007-09-11 09:36:05 51°17.025 2°39.325 -999 -999 -999 -999
2007-09-11 09:37:05 51°17.149 2°39.163 -999 -999 -999 -999
2007-09-11 09:38:05 51°17.233 2°39.04 -999 -999 -999 -999
2007-09-11 09:39:05 51°17.286 2°38.943 -999 -999 -999 -999
2007-09-11 09:40:05 51°17.332 2°38.851 -999 -999 -999 -999
2007-09-11 09:41:05 51°17.354 2°38.748 -999 -999 -999 -999
2007-09-11 09:42:05 51°17.347 2°38.68 -999 -999 -999 -999
2007-09-11 09:43:05 51°17.325 2°38.642 -999 -999 -999 -999
2007-09-11 09:44:05 51°17.3 2°38.613 -999 -999 -999 -999
2007-09-11 09:45:05 51°17.277 2°38.592 -999 -999 -999 -999
2007-09-11 09:46:05 51°17.253 2°38.575 -999 -999 -999 -999
2007-09-11 09:47:05 51°17.227 2°38.531 -999 -999 -999 -999
2007-09-11 09:48:05 51°17.208 2°38.456 -999 -999 -999 -999
2007-09-11 09:49:05 51°17.197 2°38.374 -999 -999 -999 -999
2007-09-11 09:50:05 51°17.207 2°38.275 -999 -999 -999 -999
2007-09-11 09:51:05 51°17.23 2°38.191 -999 -999 -999 -999
2007-09-11 09:52:05 51°17.252 2°38.094 -999 -999 -999 -999
2007-09-11 09:53:05 51°17.264 2°38.001 -999 -999 -999 -999
2007-09-11 09:54:05 51°17.274 2°37.898 -999 -999 -999 -999
2007-09-11 09:55:05 51°17.272 2°37.801 -999 -999 -999 -999
2007-09-11 09:56:05 51°17.259 2°37.712 -999 -999 -999 -999
2007-09-11 09:57:05 51°17.247 2°37.614 -999 -999 -999 -999
2007-09-11 09:58:05 51°17.231 2°37.506 -999 -999 -999 -999
2007-09-11 09:59:05 51°17.213 2°37.396 -999 -999 -999 -999
2007-09-11 10:00:05 51°17.187 2°37.299 -999 -999 -999 -999
2007-09-11 10:01:05 51°17.161 2°37.206 -999 -999 -999 -999
2007-09-11 10:02:05 51°17.13 2°37.114 -999 -999 -999 -999
2007-09-11 10:03:05 51°17.09 2°37.018 -999 -999 -999 -999
2007-09-11 10:04:05 51°17.04 2°36.929 -999 -999 -999 -999
2007-09-11 10:05:05 51°16.99 2°36.849 -999 -999 -999 -999
2007-09-11 10:06:05 51°16.943 2°36.771 -999 -999 -999 -999
2007-09-11 10:07:05 51°16.894 2°36.689 -999 -999 -999 -999
2007-09-11 10:08:05 51°16.845 2°36.605 -999 -999 -999 -999
2007-09-11 10:09:05 51°16.796 2°36.52 -999 -999 -999 -999
2007-09-11 10:10:05 51°16.746 2°36.437 -999 -999 -999 -999
2007-09-11 10:11:05 51°16.692 2°36.359 -999 -999 -999 -999
2007-09-11 10:12:05 51°16.637 2°36.281 -999 -999 -999 -999
2007-09-11 10:13:05 51°16.581 2°36.207 -999 -999 -999 -999
2007-09-11 10:14:05 51°16.527 2°36.132 -999 -999 -999 -999
2007-09-11 10:15:05 51°16.474 2°36.06 -999 -999 -999 -999
2007-09-11 10:16:05 51°16.421 2°35.987 -999 -999 -999 -999
2007-09-11 10:17:05 51°16.37 2°35.91 -999 -999 -999 -999
2007-09-11 10:18:06 51°16.315 2°35.834 -999 -999 -999 -999
2007-09-11 10:19:05 51°16.264 2°35.762 -999 -999 -999 -999
2007-09-11 10:20:05 51°16.212 2°35.689 -999 -999 -999 -999
2007-09-11 10:21:05 51°16.16 2°35.617 -999 -999 -999 -999
2007-09-11 10:22:05 51°16.109 2°35.547 -999 -999 -999 -999
2007-09-11 10:23:05 51°16.057 2°35.481 -999 -999 -999 -999
2007-09-11 10:24:05 51°16.005 2°35.417 -999 -999 -999 -999
2007-09-11 10:25:05 51°15.955 2°35.353 -999 -999 -999 -999
2007-09-11 10:26:05 51°15.906 2°35.287 -999 -999 -999 -999
2007-09-11 10:27:05 51°15.858 2°35.23 -999 -999 -999 -999
2007-09-11 10:28:05 51°15.829 2°35.19 -999 -999 -999 -999
2007-09-11 10:29:06 51°15.804 2°35.147 -999 -999 -999 -999
2007-09-11 10:30:06 51°15.783 2°35.109 -999 -999 -999 -999
2007-09-11 10:31:06 51°15.766 2°35.084 -999 -999 -999 -999
2007-09-11 10:32:06 51°15.751 2°35.069 -999 -999 -999 -999
2007-09-11 10:33:06 51°15.735 2°35.061 -999 -999 -999 -999
2007-09-11 10:34:06 51°15.717 2°35.06 -999 -999 -999 -999
2007-09-11 10:35:06 51°15.7 2°35.066 -999 -999 -999 -999
2007-09-11 10:36:06 51°15.683 2°35.078 -999 -999 -999 -999
2007-09-11 10:37:06 51°15.668 2°35.089 -999 -999 -999 -999
2007-09-11 10:38:06 51°15.653 2°35.1 -999 -999 -999 -999
2007-09-11 10:39:06 51°15.636 2°35.104 -999 -999 -999 -999
2007-09-11 10:40:06 51°15.611 2°35.087 -999 -999 -999 -999
2007-09-11 10:41:06 51°15.554 2°35.036 -999 -999 -999 -999
2007-09-11 10:42:06 51°15.447 2°35.09 -999 -999 -999 -999
2007-09-11 10:43:06 51°15.414 2°35.274 -999 -999 -999 -999
2007-09-11 10:44:06 51°15.372 2°35.481 -999 -999 -999 -999
2007-09-11 10:45:06 51°15.323 2°35.697 -999 -999 -999 -999
2007-09-11 10:46:06 51°15.277 2°35.919 -999 -999 -999 -999
2007-09-11 10:47:06 51°15.229 2°36.142 -999 -999 -999 -999
2007-09-11 10:48:06 51°15.183 2°36.369 -999 -999 -999 -999
2007-09-11 10:49:06 51°15.141 2°36.597 -999 -999 -999 -999
2007-09-11 10:50:06 51°15.097 2°36.831 -999 -999 -999 -999
2007-09-11 10:51:06 51°15.049 2°37.064 -999 -999 -999 -999
2007-09-11 10:52:06 51°14.999 2°37.299 -999 -999 -999 -999
2007-09-11 10:53:06 51°14.949 2°37.536 -999 -999 -999 -999
2007-09-11 10:54:06 51°14.9 2°37.771 -999 -999 -999 -999
2007-09-11 10:55:06 51°14.851 2°38.006 -999 -999 -999 -999
2007-09-11 10:56:06 51°14.807 2°38.243 -999 -999 -999 -999
2007-09-11 10:57:06 51°14.781 2°38.484 -999 -999 -999 -999
2007-09-11 10:58:06 51°14.746 2°38.722 -999 -999 -999 -999
2007-09-11 10:59:06 51°14.706 2°38.956 -999 -999 -999 -999
2007-09-11 11:00:06 51°14.669 2°39.194 -999 -999 -999 -999
2007-09-11 11:01:06 51°14.632 2°39.429 -999 -999 -999 -999
2007-09-11 11:02:06 51°14.595 2°39.666 -999 -999 -999 -999
2007-09-11 11:03:06 51°14.559 2°39.907 -999 -999 -999 -999
2007-09-11 11:04:06 51°14.521 2°40.148 -999 -999 -999 -999
2007-09-11 11:05:06 51°14.484 2°40.389 -999 -999 -999 -999
2007-09-11 11:06:06 51°14.448 2°40.63 -999 -999 -999 -999
2007-09-11 11:07:06 51°14.414 2°40.872 -999 -999 -999 -999
2007-09-11 11:08:06 51°14.383 2°41.116 -999 -999 -999 -999
2007-09-11 11:09:06 51°14.374 2°41.367 -999 -999 -999 -999
2007-09-11 11:10:06 51°14.365 2°41.616 -999 -999 -999 -999
2007-09-11 11:11:06 51°14.357 2°41.863 -999 -999 -999 -999
2007-09-11 11:12:06 51°14.349 2°42.112 -999 -999 -999 -999
2007-09-11 11:13:06 51°14.342 2°42.364 -999 -999 -999 -999
2007-09-11 11:14:06 51°14.333 2°42.614 -999 -999 -999 -999
2007-09-11 11:15:06 51°14.324 2°42.864 -999 -999 -999 -999
2007-09-11 11:16:06 51°14.313 2°43.112 -999 -999 -999 -999
2007-09-11 11:17:06 51°14.308 2°43.361 -999 -999 -999 -999
2007-09-11 11:18:06 51°14.301 2°43.61 -999 -999 -999 -999
2007-09-11 11:19:06 51°14.308 2°43.858 -999 -999 -999 -999
2007-09-11 11:20:06 51°14.331 2°44.108 -999 -999 -999 -999
2007-09-11 11:21:06 51°14.351 2°44.359 -999 -999 -999 -999
2007-09-11 11:22:06 51°14.372 2°44.612 -999 -999 -999 -999
2007-09-11 11:23:06 51°14.394 2°44.867 -999 -999 -999 -999
2007-09-11 11:24:06 51°14.413 2°45.121 -999 -999 -999 -999
2007-09-11 11:25:06 51°14.434 2°45.373 -999 -999 -999 -999
2007-09-11 11:26:06 51°14.457 2°45.627 -999 -999 -999 -999
2007-09-11 11:27:06 51°14.48 2°45.884 -999 -999 -999 -999
2007-09-11 11:28:06 51°14.506 2°46.142 -999 -999 -999 -999
2007-09-11 11:29:06 51°14.53 2°46.402 -999 -999 -999 -999
2007-09-11 11:30:06 51°14.556 2°46.664 -999 -999 -999 -999
2007-09-11 11:31:06 51°14.576 2°46.926 -999 -999 -999 -999
2007-09-11 11:32:06 51°14.596 2°47.184 -999 -999 -999 -999
2007-09-11 11:33:06 51°14.614 2°47.443 -999 -999 -999 -999
2007-09-11 11:34:06 51°14.623 2°47.697 -999 -999 -999 -999
2007-09-11 11:35:06 51°14.629 2°47.953 -999 -999 -999 -999
2007-09-11 11:36:06 51°14.639 2°48.21 -999 -999 -999 -999
2007-09-11 11:37:06 51°14.652 2°48.463 -999 -999 -999 -999
2007-09-11 11:38:06 51°14.664 2°48.719 -999 -999 -999 -999
2007-09-11 11:39:06 51°14.676 2°48.973 -999 -999 -999 -999
2007-09-11 11:40:06 51°14.686 2°49.225 -999 -999 -999 -999
2007-09-11 11:41:06 51°14.701 2°49.477 -999 -999 -999 -999
2007-09-11 11:42:06 51°14.716 2°49.73 -999 -999 -999 -999
2007-09-11 11:43:06 51°14.73 2°49.983 -999 -999 -999 -999
2007-09-11 11:44:06 51°14.744 2°50.235 -999 -999 -999 -999
2007-09-11 11:45:06 51°14.756 2°50.486 -999 -999 -999 -999
2007-09-11 11:46:06 51°14.767 2°50.738 -999 -999 -999 -999
2007-09-11 11:47:06 51°14.779 2°50.991 -999 -999 -999 -999
2007-09-11 11:48:06 51°14.79 2°51.239 -999 -999 -999 -999
2007-09-11 11:49:06 51°14.801 2°51.451 -999 -999 -999 -999
2007-09-11 11:50:06 51°14.806 2°51.577 -999 -999 -999 -999
2007-09-11 11:51:06 51°14.815 2°51.661 -999 -999 -999 -999
2007-09-11 11:52:06 51°14.821 2°51.714 -999 -999 -999 -999
2007-09-11 11:53:06 51°14.821 2°51.745 -999 -999 -999 -999
2007-09-11 11:54:06 51°14.822 2°51.776 -999 -999 -999 -999
2007-09-11 11:55:06 51°14.822 2°51.808 -999 -999 -999 -999
2007-09-11 11:56:07 51°14.821 2°51.842 -999 -999 -999 -999
2007-09-11 11:57:06 51°14.821 2°51.876 -999 -999 -999 -999
2007-09-11 11:58:06 51°14.822 2°51.911 -999 -999 -999 -999
2007-09-11 11:59:06 51°14.822 2°51.944 -999 -999 -999 -999
2007-09-11 12:00:06 51°14.823 2°51.977 -999 -999 -999 -999
2007-09-11 12:01:06 51°14.823 2°52.009 -999 -999 -999 -999
2007-09-11 12:02:06 51°14.825 2°52.042 -999 -999 -999 -999
2007-09-11 12:03:06 51°14.826 2°52.076 -999 -999 -999 -999
2007-09-11 12:04:06 51°14.827 2°52.111 -999 -999 -999 -999
2007-09-11 12:05:06 51°14.829 2°52.146 -999 -999 -999 -999
2007-09-11 12:06:06 51°14.831 2°52.182 -999 -999 -999 -999
2007-09-11 12:07:06 51°14.832 2°52.215 -999 -999 -999 -999
2007-09-11 12:08:05 51°14.833 2°52.245 -999 -999 -999 -999
2007-09-11 12:09:06 51°14.835 2°52.278 -999 -999 -999 -999
2007-09-11 12:10:06 51°14.835 2°52.313 -999 -999 -999 -999
2007-09-11 12:11:05 51°14.837 2°52.347 -999 -999 -999 -999
2007-09-11 12:12:06 51°14.838 2°52.385 -999 -999 -999 -999
2007-09-11 12:13:06 51°14.84 2°52.421 -999 -999 -999 -999
2007-09-11 12:14:06 51°14.841 2°52.459 -999 -999 -999 -999
2007-09-11 12:15:06 51°14.843 2°52.497 -999 -999 -999 -999
2007-09-11 12:16:06 51°14.846 2°52.539 -999 -999 -999 -999
2007-09-11 12:17:06 51°14.85 2°52.61 -999 -999 -999 -999
2007-09-11 12:18:06 51°14.863 2°52.754 -999 -999 -999 -999
2007-09-11 12:19:06 51°14.892 2°52.988 -999 -999 -999 -999
2007-09-11 12:20:06 51°14.914 2°53.29 -999 -999 -999 -999
2007-09-11 12:21:06 51°14.886 2°53.636 -999 -999 -999 -999
2007-09-11 12:22:06 51°14.824 2°53.969 -999 -999 -999 -999
2007-09-11 12:23:06 51°14.752 2°54.293 -999 -999 -999 -999
2007-09-11 12:24:06 51°14.635 2°54.584 -999 -999 -999 -999
2007-09-11 12:25:06 51°14.502 2°54.849 -999 -999 -999 -999
2007-09-11 12:26:05 51°14.366 2°55.104 -999 -999 -999 -999
2007-09-11 12:27:06 51°14.223 2°55.316 -999 -999 -999 -999
2007-09-11 12:28:06 51°14.112 2°55.422 -999 -999 -999 -999
2007-09-11 12:29:06 51°14.034 2°55.483 -999 -999 -999 -999
2007-09-11 12:30:06 51°13.96 2°55.537 -999 -999 -999 -999
2007-09-11 12:31:06 51°13.878 2°55.594 -999 -999 -999 -999
2007-09-11 12:32:06 51°13.797 2°55.658 -999 -999 -999 -999
2007-09-11 12:33:06 51°13.727 2°55.757 -999 -999 -999 -999
2007-09-11 12:34:06 51°13.677 2°55.864 -999 -999 -999 -999
2007-09-11 12:35:06 51°13.633 2°55.966 -999 -999 -999 -999
2007-09-11 12:36:06 51°13.61 2°56.048 -999 -999 -999 -999
2007-09-11 12:37:07 51°13.602 2°56.091 -999 -999 -999 -999
2007-09-11 12:38:06 51°13.599 2°56.098 -999 -999 -999 -999